Location: Cartignies
(50.0929°N, 3.8447°E)
Time: 14:43:41
(UTC+00:00)

Cosmos 1869 Rocket - Pass Details

Date: 12 January 2026
Orbit: 597 x 626 km, 82.5° (Epoch: 15 February)

Event Time Altitude Azimuth Distance (km) Brightness Sun altitude
Rises 18:12:53 0° 353° (N) 2,915 7.0 -19.5°
Reaches altitude 10° 18:15:11 10° 358° (N) 2,000 6.1 -19.8°
Enters shadow 18:19:29 54° 73° (ENE) 758 3.6 -20.5°
